Tracking 19720 objects as of 26-Jun-2019
HD Live streaming from Space Station
objects crossing your sky now

TITAN 3C TRANSTAGE DEB

Track TITAN 3C TRANSTAGE DEB now!


NORAD ID: 28833
Int'l Code: 1965-108CK
Perigee: 1,187.9 km
Apogee: 30,221.3 km
Inclination: 27.7 °
Period: 544.0 minutes
Semi major axis: 22075 km
RCS: 0.0934 m2 (small)
Launch date: December 21, 1965
Source: United States (US)
Launch site: AIR FORCE EASTERN TEST RANGE (AFETR)

Note: This is SATELLITE DEBRIS
aabbcc
Your satellite tracking list
Your tracking list is empty




NASA's NSSDC Master Catalog

Two Line Element Set (TLE):
1 28833U 65108CK  17287.94752317 +.00000012 +00000-0 +00000-0 0  9990
2 28833 027.7487 237.5827 6575909 219.0516 067.6525 02.64687645140284
Source of the keplerian elements: AFSPC